EW0680 Weather Reports


time (UTC)temp
C
wind
direction
speed
KPH
gust
KPH
rain 1hr
cm
rain 24hr
cm
rain mn
cm
humidity
%
barometer
mb
20260904053038 23 285 0.0 0.0 0.00 0.00 0.00 87 1014.4
20260904051539 23 285 0.0 0.0 0.00 0.00 0.00 87 1014.4
20260904050048 23 285 0.0 0.0 0.00 0.00 0.00 87 1014.4
20260904044550 23 285 0.0 0.0 0.00 0.00 0.00 87 1014.4
20260904043117 23 285 0.0 0.0 0.00 0.00 0.00 87 1014.4
20260904041605 23 285 0.0 0.0 0.00 0.00 0.00 87 1014.3
20260904041501 23 285 0.0 0.0 0.00 0.00 0.00 87 1014.3
20260904040011 23 285 0.0 0.0 0.00 0.00 0.00 87 1014.3
20260904034504 23 284 0.0 0.0 0.00 0.00 0.00 87 1014.3
20260904033010 23 4 0.0 0.0 0.00 0.00 0.00 87 1014.3
20260904031557 23 4 0.0 3.2 0.00 0.00 0.00 87 1014.5
20260904030100 23 337 0.0 4.8 0.00 0.00 0.00 84 1014.8
20260904030002 23 325 0.0 0.0 0.00 0.00 0.00 84 1014.8
20260904024555 24 325 0.0 0.0 0.00 0.00 0.00 83 1014.7
20260904023008 25 325 0.0 0.0 0.00 0.00 0.00 82 1014.6
20260904021554 25 325 0.0 3.2 0.00 0.00 0.00 81 1014.8
20260904020053 25 308 0.0 0.0 0.00 0.00 0.00 80 1014.8
20260904014621 25 349 0.0 6.4 0.00 0.00 0.00 80 1014.6
20260904013058 26 38 0.0 0.0 0.00 0.00 0.00 78 1014.4
20260904011556 26 72 1.6 4.8 0.00 0.00 0.00 77 1014.3
20260904010044 27 327 6.4 14.5 0.00 0.00 0.00 77 1014.4
20260904004553 27 347 4.8 14.5 0.00 0.00 0.00 78 1014.2
20260904003059 28 185 0.0 0.0 0.00 0.00 0.00 77 1013.6
20260904001506 29 185 0.0 0.0 0.00 0.00 0.00 76 1013.6
20260904000028 30 185 0.0 0.0 0.00 0.00 0.00 74 1013.8
20260903234516 30 185 0.0 0.0 0.00 0.00 0.00 74 1013.9
20260903233023 30 185 0.0 0.0 0.00 0.00 0.00 73 1013.6
20260903231528 31 185 0.0 0.0 0.00 0.00 0.00 72 1013.5
20260903230034 31 185 0.0 0.0 0.00 0.00 0.00 73 1013.3
20260903224544 32 185 0.0 0.0 0.00 0.00 0.00 69 1013.4
20260903223022 32 284 0.0 0.0 0.00 0.00 0.00 67 1013.5
20260903221524 32 33 1.6 9.7 0.00 0.00 0.00 66 1013.3
20260903220029 33 297 0.0 4.8 0.00 0.00 0.00 65 1013.2
20260903214547 33 309 1.6 4.8 0.00 0.00 0.00 64 1013.1
20260903213047 33 271 0.0 3.2 0.00 0.00 0.00 64 1012.7
20260903211523 33 306 0.0 3.2 0.00 0.00 0.00 62 1012.6
20260903210042 33 302 1.6 8.0 0.00 0.00 0.00 60 1012.7
20260903204539 33 307 1.6 8.0 0.00 0.00 0.00 58 1012.8
20260903203044 33 338 1.6 6.4 0.00 0.00 0.00 59 1012.9
20260903201541 33 318 1.6 6.4 0.00 0.00 0.00 58 1013.2
20260903200041 34 294 0.0 4.8 0.00 0.00 0.00 60 1013.3
20260903194548 33 246 0.0 6.4 0.00 0.00 0.00 63 1013.6
20260903193017 33 142 0.0 4.8 0.00 0.00 0.00 64 1014.0
20260903191535 34 302 3.2 6.4 0.00 0.00 0.00 59 1014.3
20260903190024 34 204 0.0 3.2 0.00 0.00 0.00 61 1014.4
20260903184524 34 203 0.0 8.0 0.00 0.00 0.00 61 1014.5
20260903183023 33 346 0.0 6.4 0.00 0.00 0.00 60 1014.6
20260903181515 33 337 0.0 4.8 0.00 0.00 0.00 62 1014.6
20260903180005 33 18 0.0 9.7 0.00 0.00 0.00 64 1014.7
20260903174506 33 48 1.6 8.0 0.00 0.00 0.00 63 1014.9
20260903173003 32 277 1.6 6.4 0.00 0.00 0.00 65 1015.0
20260903171518 32 314 1.6 6.4 0.00 0.00 0.00 65 1015.1
20260903170006 32 319 1.6 6.4 0.00 0.00 0.00 66 1015.1
20260903164511 32 325 1.6 6.4 0.00 0.00 0.00 67 1015.2
20260903163012 32 319 1.6 4.8 0.00 0.00 0.00 70 1015.3
20260903161511 31 77 3.2 6.4 0.00 0.00 0.00 70 1015.4
20260903160017 31 315 0.0 4.8 0.00 0.00 0.00 73 1015.5
20260903154515 31 328 3.2 6.4 0.00 0.00 0.00 70 1015.6
20260903153015 31 286 0.0 3.2 0.00 0.00 0.00 72 1015.6
20260903151517 31 304 1.6 4.8 0.00 0.00 0.00 72 1015.4
20260903150016 30 258 0.0 4.8 0.00 0.00 0.00 74 1015.4
20260903144519 30 291 1.6 8.0 0.00 0.00 0.00 73 1015.4
20260903143023 30 129 1.6 4.8 0.00 0.00 0.00 75 1015.4
20260903141505 29 306 0.0 4.8 0.00 0.00 0.00 78 1015.5
20260903140006 28 351 0.0 1.6 0.00 0.00 0.00 79 1015.6
20260903134502 27 243 0.0 0.0 0.00 0.00 0.00 81 1015.7
20260903133003 26 288 0.0 0.0 0.00 0.00 0.00 83 1015.8
20260903131600 26 257 0.0 0.0 0.00 0.00 0.00 84 1015.8
20260903131503 26 257 0.0 0.0 0.00 0.00 0.00 85 1015.8
20260903130003 25 257 0.0 0.0 0.00 0.00 0.00 85 1015.9
20260903124509 25 257 0.0 0.0 0.00 0.00 0.00 86 1016.1
20260903123025 24 257 0.0 0.0 0.00 0.00 0.00 87 1016.0
20260903121522 23 257 0.0 0.0 0.00 0.00 0.00 87 1016.1
20260903120029 23 257 0.0 0.0 0.00 0.00 0.00 88 1015.9
20260903114511 23 257 0.0 0.0 0.00 0.00 0.00 88 1015.7
20260903113016 22 257 0.0 0.0 0.00 0.00 0.00 88 1015.6
20260903111516 23 257 0.0 0.0 0.00 0.00 0.00 88 1015.5
20260903110021 23 257 0.0 0.0 0.00 0.00 0.00 88 1015.3
20260903104522 23 257 0.0 0.0 0.00 0.00 0.00 87 1015.3
20260903103026 23 257 0.0 0.0 0.00 0.00 0.00 87 1015.1
20260903101529 23 257 0.0 0.0 0.00 0.00 0.00 87 1015.1
20260903100036 23 257 0.0 0.0 0.00 0.00 0.00 87 1015.0
20260903094536 23 257 0.0 0.0 0.00 0.00 0.00 87 1014.9
20260903093102 23 252 0.0 0.0 0.00 0.00 0.00 87 1015.0
20260903091524 23 252 0.0 0.0 0.00 0.00 0.00 87 1015.0
20260903090024 23 251 0.0 0.0 0.00 0.00 0.00 87 1015.0
20260903084524 23 252 0.0 0.0 0.00 0.00 0.00 87 1015.0
20260903083030 23 252 0.0 0.0 0.00 0.00 0.00 87 1015.0
20260903081529 23 252 0.0 0.0 0.00 0.00 0.00 86 1015.0
20260903080020 23 251 0.0 0.0 0.00 0.00 0.00 86 1015.0
20260903074527 23 251 0.0 0.0 0.00 0.00 0.00 86 1014.9
20260903073025 24 251 0.0 0.0 0.00 0.00 0.00 86 1014.9
20260903071516 24 251 0.0 0.0 0.00 0.00 0.00 86 1014.9
20260903070105 24 251 0.0 0.0 0.00 0.00 0.00 86 1014.9
20260903070002 24 252 0.0 0.0 0.00 0.00 0.00 86 1014.9
20260903064506 24 252 0.0 0.0 0.00 0.00 0.00 86 1014.9
20260903063011 24 256 0.0 0.0 0.00 0.00 0.00 86 1014.9
20260903061512 24 256 0.0 0.0 0.00 0.00 0.00 86 1014.9
20260903060016 24 256 0.0 0.0 0.00 0.00 0.00 86 1014.9
20260903054527 24 256 0.0 0.0 0.00 0.00 0.00 86 1014.9